Regional Weather Roundup
Issued by NWS

Home | Current Version | Previous Version | Text Only | Print | Product List | Glossary Off
Versions: 1 2 3 4 5 6 7 8 9 10 11 12 13 14 15 16 17 18 19 20 21 22 23 24 25 26 27 28 29 30 31 32 33 34 35 36 37 38 39 40 41 42 43 44 45 46 47 48 49 50

193
ASUS45 KCYS 311110
RWRWY

WYOMING REGIONAL WEATHER ROUNDUP
NATIONAL WEATHER SERVICE CHEYENNE WY
500 AM MDT TUE MAY 31 2016

NOTE:  "FAIR" INDICATES FEW OR NO CLOUDS BELOW 12,000 FEET
WITH NO SIGNIFICANT WEATHER AND/OR OBSTRUCTIONS TO VISIBILITY.

WYZ001-311200-
YELLOWSTONE NATIONAL PARK

CITY           SKY/WX    TMP DP  RH WIND       PRES   REMARKS
LK YELLOWSTONE   N/A     27  22  81 NW3       30.25S
W YELLOWSTONE  NOT AVBL

$$
WYZ002>013-054>058-071-098>099-311200-
NORTHERN WYOMING

CITY           SKY/WX    TMP DP  RH WIND       PRES   REMARKS
JACKSON        FAIR      37  30  75 NE5       30.20R WCI  34
CODY           FAIR      37  30  75 CALM      30.15S
GREYBULL       FAIR      45  33  63 W13       30.12R
WORLAND        MOCLDY    47  36  65 W7        30.13R
SHERIDAN       FAIR      45  32  60 CALM      30.09R
BUFFALO        FAIR      42  29  59 W10       30.10F
GILLETTE       FAIR      43  38  82 W16       30.06F
HULETT         PTSUNNY   43  37  81 SW10      30.04S
NEWCASTLE      FAIR      37  32  81 N6        30.09S WCI  33

$$
WYZ014>020-022>026-101>103-311200-
CENTRAL WYOMING

CITY           SKY/WX    TMP DP  RH WIND       PRES   REMARKS
BIG PINEY      FAIR      34  29  82 CALM      30.19R
PINEDALE       FAIR      32  32 100 W5        30.19S WCI  27
DUBOIS         PTSUNNY   37  30  75 NW9       30.18S WCI  31
LANDER         MOCLDY    45  39  79 NE6       30.14R
RIVERTON       CLOUDY    44  37  76 NE3       30.16S
CASPER         FAIR      36  33  89 VRB5      30.15R WCI  32
DOUGLAS          N/A    N/A N/A N/A MISG      30.13F

$$
WYZ021-027>030-104>119-311200-
SOUTHERN WYOMING

CITY           SKY/WX    TMP DP  RH WIND       PRES   REMARKS
EVANSTON       FAIR      43  33  68 CALM      30.16S
KEMMERER         N/A     36  30  80 NW9       30.18S WCI  29
FORT BRIDGER   SUNNY     41  36  81 MISG      30.20R
ROCK SPRINGS   FAIR      39  37  92 E5        30.17S
DIXON          PTSUNNY   39  34  82 SE3       30.16S
RAWLINS        FAIR      35  32  88 N6        30.16S WCI  30
SARATOGA       CLOUDY    39  39 100 SE7       30.16F WCI  34
LARAMIE        FAIR      39  33  79 CALM      30.15F
CHEYENNE       CLOUDY    44  38  79 NW6       30.16R
TORRINGTON     LGT RAIN  46  42  86 W7        30.10S
PINE BLUFFS    CLOUDY    43  39  87 W3        30.15R

$$




USA.gov is the U.S. government's official web portal to all federal, state and local government web resources and services.